Myrtle Beach, SC

5:58 AM EDT on April 26, 2017 (GMT -0400)
Myrtle Beach International

Weather History for KMYR - February, 2012

Change the Weather History Date:

Wednesday, February 29, 2012

  Actual Average Record
Temperature  
Mean Temperature 62 °F -  
Max Temperature 73 °F 59 °F 73 °F (2012)
Min Temperature 50 °F 40 °F 26 °F (2004)
Degree Days  
Heating Degree Days 4    
Growing Degree Days 12 (Base 50)    
Moisture  
Dew Point 53 °F    
Average Humidity 80    
Maximum Humidity 88    
Minimum Humidity 68    
Precipitation  
Precipitation 0.00 in - - ()
Sea Level Pressure  
Sea Level Pressure 30.16 in    
Wind  
Wind Speed 5 mph (SSE)    
Max Wind Speed 16 mph    
Max Gust Speed 24 mph    
Visibility 10 miles    
Events      
Averages and records for this station are not official NWS values.
T = Trace of Precipitation, MM = Missing Value Source: NWS Daily Summary

Daily Weather History Graph

Daily Weather History Graph

Search for Another Location

Airport or City:

Trip Planner

Search our weather history database for the weather conditions in past years. The results will help you decide how hot, cold, wet, or windy it might be!

Date:

Astronomy

Feb. 29, 2012 Rise Set
Actual Time 6:44 AM EST 6:11 PM EST
Civil Twilight 6:19 AM EST 6:36 PM EST
Nautical Twilight 5:50 AM EST 7:05 PM EST
Astronomical Twilight 5:22 AM EST 7:34 PM EST
Moon 10:56 AM EST (2/29) 12:35 AM EST (2/29)
Length of Visible Light 12h 17m
Length of Day
11h 27m
Waxing Crescent, 47% of the Moon is Illuminated
Feb 29
Waxing Crescent
Feb 29
First Quarter
Mar 8
Full
Mar 14
Last Quarter
Mar 22
New

Hourly Weather History & Observations

Time (EST) Temp. Dew Point Humidity Pressure Visibility Wind Dir Wind Speed Gust Speed Precip Events Conditions
12:15 AM 50.0 °F 44.6 °F 82% 30.31 in 10.0 mi Calm Calm - N/A   Clear
12:35 AM 53.6 °F 46.4 °F 77% 30.29 in 10.0 mi ESE 4.6 mph - N/A   Partly Cloudy
12:55 AM 53.6 °F 46.4 °F 77% 30.29 in 10.0 mi East 4.6 mph - N/A   Clear
1:15 AM 53.6 °F 46.4 °F 77% 30.29 in 10.0 mi Calm Calm - N/A   Clear
1:35 AM 53.6 °F 46.4 °F 77% 30.29 in 10.0 mi ESE 3.5 mph - N/A   Clear
1:55 AM 53.6 °F 46.4 °F 77% 30.27 in 10.0 mi East 4.6 mph - N/A   Clear
2:15 AM 53.6 °F 46.4 °F 77% 30.26 in 10.0 mi ENE 3.5 mph - N/A   Scattered Clouds
2:35 AM 53.6 °F 46.4 °F 77% 30.25 in 10.0 mi NE 3.5 mph - N/A   Partly Cloudy
2:55 AM 53.6 °F 46.4 °F 77% 30.24 in 10.0 mi Calm Calm - N/A   Clear
3:15 AM 53.6 °F 48.2 °F 82% 30.24 in 10.0 mi Calm Calm - N/A   Mostly Cloudy
3:35 AM 53.6 °F 48.2 °F 82% 30.24 in 10.0 mi Calm Calm - N/A   Overcast
3:55 AM 53.6 °F 46.4 °F 77% 30.23 in 10.0 mi Calm Calm - N/A   Overcast
4:15 AM 53.6 °F 48.2 °F 82% 30.23 in 10.0 mi Calm Calm - N/A   Mostly Cloudy
4:35 AM 53.6 °F 48.2 °F 82% 30.22 in 10.0 mi ENE 4.6 mph - N/A   Clear
4:55 AM 53.6 °F 48.2 °F 82% 30.22 in 10.0 mi NE 4.6 mph - N/A   Clear
5:15 AM 53.6 °F 48.2 °F 82% 30.22 in 10.0 mi Calm Calm - N/A   Clear
5:35 AM 51.8 °F 46.4 °F 82% 30.22 in 10.0 mi Calm Calm - N/A   Clear
5:55 AM 51.8 °F 46.4 °F 82% 30.23 in 10.0 mi Calm Calm - N/A   Scattered Clouds
6:50 AM 53.6 °F 48.2 °F 82% 30.23 in 8.0 mi Calm Calm - N/A   Mostly Cloudy
7:50 AM 55.4 °F 51.8 °F 88% 30.23 in 8.0 mi ESE 6.9 mph - N/A   Overcast
8:45 AM 57.2 °F 53.6 °F 88% 30.23 in 10.0 mi SE 6.9 mph - N/A   Overcast
9:50 AM 62.6 °F 55.4 °F 77% 30.21 in 10.0 mi SE 9.2 mph - N/A   Mostly Cloudy
10:50 AM 62.6 °F 57.2 °F 82% 30.19 in 10.0 mi SSE 9.2 mph - N/A   Mostly Cloudy
11:45 AM 66.2 °F 60.8 °F 83% 30.15 in 10.0 mi South 9.2 mph - N/A   Mostly Cloudy
12:50 PM 71.6 °F 62.6 °F 73% 30.11 in 10.0 mi South 15.0 mph 20.7 mph N/A   Scattered Clouds
1:45 PM 73.4 °F 62.6 °F 69% 30.07 in 10.0 mi South 15.0 mph 20.7 mph N/A   Scattered Clouds
2:45 PM 71.6 °F 62.6 °F 73% 30.05 in 10.0 mi South 16.1 mph 24.2 mph N/A   Scattered Clouds
3:45 PM 68.0 °F 60.8 °F 78% 30.04 in 10.0 mi South 16.1 mph 24.2 mph N/A   Scattered Clouds
4:45 PM 68.0 °F 60.8 °F 78% 30.01 in 10.0 mi SSW 16.1 mph 24.2 mph N/A   Mostly Cloudy
6:47 PM 64.4 °F 59.0 °F 83% 29.99 in 10.0 mi South 11.5 mph - N/A   Scattered Clouds
7:45 PM 64.4 °F 59.0 °F 83% 29.98 in 10.0 mi South 11.5 mph - N/A   Scattered Clouds
8:45 PM 64.4 °F 59.0 °F 83% 29.98 in 10.0 mi South 9.2 mph - N/A   Clear
9:47 PM 69.8 °F 59.0 °F 68% 29.99 in 10.0 mi SSW 11.5 mph - N/A   Clear
11:15 PM 66.2 °F 60.8 °F 83% 30.00 in 10.0 mi SSW 11.5 mph - N/A   Scattered Clouds
11:35 PM 66.2 °F 60.8 °F 83% 29.96 in 10.0 mi South 15.0 mph - N/A   Partly Cloudy
11:55 PM 66.2 °F 60.8 °F 83% 29.97 in 10.0 mi South 10.4 mph - N/A   Scattered Clouds